GW1255 Weather Reports


Display with metric or nautical units.
time (UTC)temp
F
wind
direction
speed
MPH
gust
MPH
rain 1hr
in
rain 24hr
in
rain mn
in
humidity
%
barometer
mb
20260505233603 48 29 4.0 8.0 0.00 0.00 0.00 83 1014.3
20260505232918 48 29 5.0 8.0 0.00 0.00 0.00 82 1014.4
20260505231803 48 33 5.0 10.0 0.00 0.00 0.00 82 1014.5
20260505230903 48 26 5.0 8.0 0.00 0.00 0.00 82 1014.5
20260505230217 49 16 6.0 11.0 0.00 0.00 0.00 82 1014.5
20260505225403 48 14 6.0 8.0 0.00 0.00 0.00 81 1014.3
20260505224504 49 6 6.0 9.0 0.00 0.00 0.00 81 1014.5
20260505223818 48 360 6.0 9.0 0.00 0.00 0.00 81 1014.5
20260505222703 49 354 5.0 10.0 0.00 0.00 0.00 80 1014.5
20260505221803 49 353 6.0 9.0 0.00 0.00 0.00 80 1014.4
20260505220903 49 351 3.0 4.0 0.00 0.00 0.00 80 1014.5
20260505220003 49 348 4.0 9.0 0.00 0.00 0.00 80 1014.4
20260505215403 49 339 5.0 8.0 0.00 0.00 0.00 80 1014.5
20260505214718 49 343 6.0 10.0 0.00 0.00 0.00 79 1014.4
20260505213603 49 331 3.0 9.0 0.00 0.00 0.00 79 1014.3
20260505212703 49 345 6.0 9.0 0.00 0.00 0.00 78 1014.4
20260505212018 49 346 5.0 9.0 0.00 0.00 0.00 78 1014.3
20260505211118 49 1 6.0 9.0 0.00 0.00 0.00 78 1014.4
20260505210004 49 357 7.0 11.0 0.00 0.00 0.00 78 1014.3
20260505205618 49 353 7.0 11.0 0.00 0.00 0.00 78 1014.2
20260505204503 50 323 4.0 9.0 0.00 0.00 0.00 77 1014.3
20260505203817 50 353 5.0 8.0 0.00 0.00 0.00 77 1014.3
20260505202703 50 346 6.0 10.0 0.00 0.00 0.00 77 1014.4
20260505201803 50 346 7.0 11.0 0.00 0.00 0.00 76 1014.3
20260505201117 50 3 7.0 11.0 0.00 0.00 0.00 76 1014.2
20260505200003 50 335 6.0 9.0 0.00 0.00 0.00 76 1014.2
20260505195618 50 340 7.0 11.0 0.00 0.00 0.00 75 1014.1
20260505194503 50 349 7.0 11.0 0.00 0.00 0.00 74 1014.1
20260505193603 50 356 6.0 9.0 0.00 0.00 0.00 74 1014.0
20260505192918 50 349 7.0 13.0 0.00 0.00 0.00 74 1013.9
20260505191803 51 353 7.0 12.0 0.00 0.00 0.00 73 1013.9
20260505190903 51 356 8.0 13.0 0.00 0.00 0.00 73 1013.9
20260505190218 51 323 8.0 14.0 0.00 0.00 0.00 74 1013.9
20260505185403 51 335 9.0 14.0 0.00 0.00 0.00 74 1013.8
20260505184503 52 358 6.0 10.0 0.00 0.00 0.00 73 1013.8
20260505183603 52 329 7.0 13.0 0.00 0.00 0.00 72 1013.8
20260505182703 52 6 8.0 13.0 0.00 0.00 0.00 71 1013.7
20260505181803 53 349 6.0 11.0 0.00 0.00 0.00 70 1013.8
20260505180903 52 346 9.0 14.0 0.00 0.00 0.00 71 1013.8
20260505180003 52 331 8.0 13.0 0.00 0.00 0.00 71 1013.8
20260505175403 53 333 9.0 13.0 0.00 0.00 0.00 71 1013.8
20260505174503 53 327 8.0 13.0 0.00 0.00 0.00 69 1013.8
20260505173603 53 342 9.0 13.0 0.00 0.00 0.00 68 1013.9
20260505172703 53 340 9.0 13.0 0.00 0.00 0.00 69 1013.8
20260505171803 54 343 9.0 12.0 0.00 0.00 0.00 68 1013.9
20260505170903 54 340 8.0 12.0 0.00 0.00 0.00 67 1013.9
20260505170003 54 348 8.0 12.0 0.00 0.00 0.00 66 1014.0
20260505165403 54 332 8.0 12.0 0.00 0.00 0.00 64 1014.0
20260505164503 54 333 8.0 12.0 0.00 0.00 0.00 64 1013.9
20260505163603 55 340 8.0 13.0 0.00 0.00 0.00 64 1013.9
20260505162703 55 323 9.0 13.0 0.00 0.00 0.00 65 1013.9
20260505161803 55 348 8.0 11.0 0.00 0.00 0.00 65 1013.9
20260505160903 54 354 8.0 11.0 0.00 0.00 0.00 65 1013.9
20260505160217 54 332 8.0 11.0 0.00 0.00 0.00 66 1014.0
20260505152703 54 5 8.0 11.0 0.00 0.00 0.00 66 1014.1
20260505151803 54 331 8.0 11.0 0.00 0.00 0.00 67 1014.1
20260505150903 54 351 8.0 12.0 0.00 0.00 0.00 66 1014.2
20260505124503 55 11 9.0 17.0 0.00 0.00 0.00 62 1014.4
20260505123603 55 349 10.0 17.0 0.00 0.00 0.00 62 1014.4
20260505122917 56 348 9.0 14.0 0.00 0.00 0.00 62 1014.3
20260505121803 56 332 9.0 15.0 0.00 0.00 0.00 59 1014.3
20260505121118 55 341 10.0 14.0 0.00 0.00 0.00 58 1014.3
20260505120003 55 347 12.0 16.0 0.00 0.00 0.00 59 1014.3
20260505115403 55 355 11.0 18.0 0.00 0.00 0.00 60 1014.4
20260505114503 56 326 9.0 18.0 0.00 0.00 0.00 56 1014.2
20260505113818 55 350 11.0 18.0 0.00 0.00 0.00 60 1014.5
20260505112703 55 360 10.0 15.0 0.00 0.00 0.00 60 1014.4
20260505111803 55 344 10.0 16.0 0.00 0.00 0.00 61 1014.4
20260505110903 55 350 9.0 17.0 0.00 0.00 0.00 61 1014.4
20260505101803 54 350 11.0 17.0 0.00 0.00 0.00 64 1014.6
20260505101117 54 349 8.0 13.0 0.00 0.00 0.00 67 1014.6
20260505100004 54 344 9.0 14.0 0.00 0.00 0.00 68 1014.6
20260505095403 54 351 8.0 13.0 0.00 0.00 0.00 67 1014.7
20260505094503 54 5 7.0 11.0 0.00 0.00 0.00 67 1014.7
20260505093603 54 5 9.0 16.0 0.00 0.00 0.00 69 1014.8
20260505092918 53 352 8.0 13.0 0.00 0.00 0.00 68 1014.9
20260505091803 52 349 10.0 16.0 0.00 0.00 0.00 69 1014.9
20260505090903 52 344 11.0 17.0 0.00 0.00 0.00 69 1014.7
20260505090003 51 342 11.0 16.0 0.00 0.00 0.00 70 1014.6
20260505085403 51 351 11.0 16.0 0.00 0.00 0.00 72 1014.6
20260505084717 50 348 10.0 15.0 0.00 0.00 0.00 73 1014.7
20260505083603 50 335 10.0 16.0 0.00 0.00 0.00 73 1014.6
20260505082918 50 341 11.0 17.0 0.00 0.00 0.00 74 1014.7
20260505082017 49 331 10.0 14.0 0.00 0.00 0.00 74 1014.7
20260505080903 49 350 11.0 16.0 0.00 0.00 0.00 77 1014.8
20260505080004 49 338 9.0 12.0 0.00 0.00 0.00 78 1015.0
20260505075618 49 339 9.0 12.0 0.00 0.00 0.00 80 1015.1
20260505074503 49 11 8.0 12.0 0.00 0.00 0.00 81 1015.0
20260505073603 48 14 7.0 12.0 0.00 0.00 0.00 81 1015.0
20260505072703 48 354 6.0 10.0 0.00 0.00 0.00 82 1015.0
20260505071803 48 1 5.0 8.0 0.00 0.00 0.00 84 1015.2
20260505070903 47 359 6.0 11.0 0.00 0.00 0.00 84 1015.2
20260505070003 47 349 6.0 11.0 0.00 0.00 0.00 85 1015.0
20260505065403 47 357 5.0 9.0 0.00 0.00 0.00 85 1015.3
20260505064503 47 333 3.0 5.0 0.00 0.00 0.00 86 1015.2
20260505063818 47 333 5.0 7.0 0.00 0.00 0.00 86 1015.3
20260505062703 47 323 5.0 6.0 0.00 0.00 0.00 87 1015.2
20260505061803 47 353 4.0 6.0 0.00 0.00 0.00 87 1015.2
20260505060903 47 329 4.0 6.0 0.00 0.00 0.00 87 1015.1
20260505060003 47 325 4.0 6.0 0.00 0.00 0.00 87 1015.3
20260505055403 47 322 4.0 7.0 0.00 0.00 0.00 87 1015.3
20260505054504 47 330 5.0 7.0 0.00 0.00 0.00 87 1015.2
20260505053603 46 335 4.0 7.0 0.00 0.00 0.00 87 1015.2
20260505052917 46 345 3.0 7.0 0.00 0.00 0.00 88 1015.1
20260505051803 46 332 4.0 5.0 0.00 0.00 0.00 89 1015.2
20260505050903 46 312 4.0 6.0 0.00 0.00 0.00 89 1015.3
20260505040903 46 328 2.0 4.0 0.00 0.00 0.00 89 1014.9
20260505040004 46 357 3.0 6.0 0.00 0.00 0.00 89 1014.7
20260505035403 47 5 2.0 3.0 0.00 0.00 0.00 89 1014.7
20260505034503 47 354 3.0 5.0 0.00 0.00 0.00 90 1014.8
20260505033603 47 354 2.0 5.0 0.00 0.00 0.00 90 1014.8
20260505032703 47 343 4.0 6.0 0.00 0.00 0.00 90 1015.0
20260505032017 47 346 4.0 6.0 0.00 0.00 0.00 90 1015.1
20260505030903 47 354 4.0 6.0 0.00 0.00 0.00 91 1015.0
20260505030218 46 357 3.0 6.0 0.00 0.00 0.00 92 1015.0
20260505025403 46 2 4.0 7.0 0.00 0.00 0.00 92 1015.1
20260505024717 46 5 3.0 5.0 0.00 0.00 0.00 92 1015.1
20260505023603 46 334 2.0 3.0 0.00 0.00 0.00 92 1015.2
20260505022918 46 321 3.0 5.0 0.00 0.00 0.00 92 1015.0
20260505021803 46 315 3.0 4.0 0.00 0.00 0.00 91 1015.2
20260505020903 46 313 2.0 4.0 0.00 0.00 0.00 91 1015.1
20260505020003 46 316 3.0 4.0 0.00 0.00 0.00 91 1015.2
20260505015403 46 324 2.0 4.0 0.00 0.00 0.00 90 1015.1
20260505014503 47 334 1.0 3.0 0.00 0.00 0.00 90 1015.2
20260505013603 47 333 2.0 5.0 0.00 0.00 0.00 90 1015.3
20260505012703 47 16 2.0 5.0 0.00 0.00 0.00 89 1015.5
20260505011803 47 8 2.0 4.0 0.00 0.00 0.00 89 1015.4
20260505010903 48 21 3.0 5.0 0.00 0.00 0.00 89 1015.3
20260505010003 48 10 2.0 4.0 0.00 0.00 0.00 89 1015.4
20260505005403 48 1 1.0 3.0 0.00 0.00 0.00 90 1015.3
20260505004503 48 356 2.0 3.0 0.00 0.00 0.00 90 1015.6
20260505003603 48 344 2.0 3.0 0.00 0.00 0.00 90 1015.6
20260505002703 48 342 2.0 4.0 0.00 0.00 0.00 90 1015.6
20260505002018 47 334 2.0 4.0 0.00 0.00 0.00 90 1015.7
20260505000903 47 310 2.0 4.0 0.00 0.00 0.00 89 1015.9
20260505000004 47 306 2.0 3.0 0.00 0.00 0.00 89 1015.9
20260504235403 47 319 1.0 2.0 0.00 0.00 0.00 88 1016.0
20260504234503 48 19 0.0 1.0 0.00 0.00 0.00 87 1016.0